• In Czech Republic
  • List of Countries
  • For 7 days
  • Water Temperature
  • Satellite Maps
  • Weather Map
  • Weather Widgets
  • user-avatar
    Login

    Hourly Weather Waterbury

    Today, 24 October, Wednesday

    Time Temperature Precipitation Wind Pressure Humidity
    00:00 +4°C° 0 mm 3 mps 746 mmHg 89%
    01:00 +4°C° 0 mm 3 mps 746 mmHg 90%
    02:00 +4°C° 0 mm 3 mps 746 mmHg 90%
    03:00 +3°C° 0 mm 3 mps 746 mmHg 91%
    04:00 +3°C° 0 mm 3 mps 746 mmHg 91%
    05:00 +3°C° 0 mm 3 mps 747 mmHg 90%
    06:00 +3°C° 0 mm 3 mps 747 mmHg 89%
    07:00 +3°C° 0 mm 3 mps 747 mmHg 89%
    08:00 +5°C° 0 mm 4 mps 747 mmHg 80%
    09:00 +6°C° 0 mm 5 mps 748 mmHg 71%
    10:00 +8°C° 0 mm 6 mps 748 mmHg 62%
    11:00 +8°C° 0 mm 6 mps 748 mmHg 58%
    12:00 +9°C° 0 mm 6 mps 748 mmHg 53%
    13:00 +10°C° 0 mm 6 mps 748 mmHg 49%
    14:00 +9°C° 0 mm 6 mps 748 mmHg 51%
    15:00 +9°C° 0 mm 6 mps 748 mmHg 53%
    16:00 +8°C° 0 mm 5 mps 749 mmHg 55%
    17:00 +7°C° 0 mm 5 mps 749 mmHg 60%
    18:00 +6°C° 0 mm 5 mps 750 mmHg 65%
    19:00 +5°C° 0 mm 5 mps 750 mmHg 70%
    20:00 +4°C° 0 mm 4 mps 750 mmHg 72%
    21:00 +3°C° 0 mm 4 mps 750 mmHg 73%
    22:00 +3°C° 0 mm 3 mps 751 mmHg 75%
    23:00 +2°C° 0 mm 3 mps 751 mmHg 76%

    Tomorrow, 25 October, Thursday

    Time Temperature Precipitation Wind Pressure Humidity
    00:00 +2°C° 0 mm 3 mps 751 mmHg 77%
    01:00 +1°C° 0 mm 3 mps 751 mmHg 78%
    02:00 +1°C° 0 mm 3 mps 751 mmHg 80%
    03:00 +1°C° 0 mm 3 mps 750 mmHg 82%
    04:00 +1°C° 0 mm 3 mps 750 mmHg 84%
    05:00 +1°C° 0 mm 3 mps 750 mmHg 82%
    06:00 +1°C° 0 mm 3 mps 750 mmHg 80%
    07:00 0°C° 0 mm 4 mps 750 mmHg 78%
    08:00 +1°C° 0 mm 4 mps 750 mmHg 68%
    09:00 +4°C° 0 mm 4 mps 750 mmHg 57%
    10:00 +5°C° 0 mm 5 mps 750 mmHg 47%
    11:00 +6°C° 0 mm 5 mps 750 mmHg 44%
    12:00 +7°C° 0 mm 5 mps 750 mmHg 40%
    13:00 +7°C° 0 mm 5 mps 749 mmHg 37%
    14:00 +7°C° 0 mm 5 mps 749 mmHg 39%
    15:00 +7°C° 0 mm 4 mps 749 mmHg 42%
    16:00 +6°C° 0 mm 4 mps 749 mmHg 44%
    17:00 +5°C° 0 mm 4 mps 749 mmHg 49%
    18:00 +3°C° 0 mm 3 mps 750 mmHg 54%
    19:00 +2°C° 0 mm 3 mps 750 mmHg 59%
    20:00 +1°C° 0 mm 3 mps 750 mmHg 60%
    21:00 +1°C° 0 mm 3 mps 751 mmHg 62%
    22:00 0°C° 0 mm 3 mps 751 mmHg 63%
    23:00 +1°C° 0 mm 2 mps 751 mmHg 64%

    Day after tomorrow, 26 October, Friday

    Time Temperature Precipitation Wind Pressure Humidity
    00:00 +1°C° 0 mm 2 mps 751 mmHg 65%
    01:00 -1°C° 0 mm 2 mps 751 mmHg 66%
    02:00 -1°C° 0 mm 2 mps 751 mmHg 67%
    03:00 +1°C° 0 mm 1 mps 751 mmHg 67%
    04:00 +1°C° 0 mm 1 mps 751 mmHg 68%
    05:00 +1°C° 0 mm 1 mps 751 mmHg 68%
    06:00 +1°C° 0 mm 1 mps 751 mmHg 67%
    07:00 +2°C° 0 mm 1 mps 751 mmHg 66%
    08:00 +4°C° 0 mm 1 mps 751 mmHg 59%
    09:00 +7°C° 0 mm 1 mps 751 mmHg 51%
    10:00 +9°C° 0 mm 1 mps 752 mmHg 44%
    11:00 +9°C° 0 mm 2 mps 751 mmHg 43%
    12:00 +9°C° 0 mm 2 mps 751 mmHg 43%
    13:00 +10°C° 0 mm 3 mps 751 mmHg 42%
    14:00 +10°C° 0 mm 2 mps 751 mmHg 46%
    15:00 +10°C° 0 mm 1 mps 750 mmHg 50%
    16:00 +10°C° 0 mm 1 mps 750 mmHg 54%
    17:00 +9°C° 0 mm 1 mps 750 mmHg 57%
    18:00 +8°C° 0 mm 1 mps 751 mmHg 61%
    19:00 +6°C° 0 mm 1 mps 751 mmHg 65%
    20:00 +6°C° 0 mm 1 mps 751 mmHg 67%
    21:00 +6°C° 0 mm 1 mps 751 mmHg 69%
    22:00 +5°C° 0 mm 1 mps 751 mmHg 71%
    23:00 +5°C° 0 mm 1 mps 751 mmHg 72%

    27 October, Saturday

    Time Temperature Precipitation Wind Pressure Humidity
    00:00 +5°C° 0 mm 1 mps 751 mmHg 73%
    01:00 +5°C° 0 mm 1 mps 751 mmHg 75%
    02:00 +4°C° 0 mm 2 mps 751 mmHg 74%
    03:00 +4°C° 0 mm 2 mps 751 mmHg 74%
    04:00 +3°C° 0 mm 3 mps 751 mmHg 74%
    05:00 +3°C° 0.1 mm 3 mps 752 mmHg 74%
    06:00 +3°C° 0.1 mm 3 mps 752 mmHg 73%
    07:00 +3°C° 0.1 mm 4 mps 752 mmHg 73%
    08:00 +4°C° 0.8 mm 4 mps 752 mmHg 75%
    09:00 +3°C° 0.8 mm 5 mps 752 mmHg 77%
    10:00 +3°C° 0.8 mm 5 mps 752 mmHg 79%
    11:00 +3°C° 2.3 mm 6 mps 751 mmHg 82%
    12:00 +4°C° 2.3 mm 6 mps 750 mmHg 86%
    13:00 +4°C° 2.3 mm 7 mps 750 mmHg 89%
    14:00 +4°C° 2.3 mm 7 mps 750 mmHg 89%
    15:00 +4°C° 2.3 mm 7 mps 749 mmHg 90%
    16:00 +4°C° 2.3 mm 7 mps 749 mmHg 91%
    17:00 +4°C° 1.6 mm 7 mps 749 mmHg 90%
    18:00 +4°C° 1.6 mm 7 mps 749 mmHg 90%
    19:00 +4°C° 1.6 mm 7 mps 749 mmHg 90%
    20:00 +4°C° 0.5 mm 7 mps 748 mmHg 90%
    21:00 +2°C° 0.5 mm 8 mps 748 mmHg 89%
    22:00 +2°C° 0.5 mm 8 mps 748 mmHg 89%
    23:00 +2°C° 0.3 mm 8 mps 747 mmHg 89%

    28 October, Sunday

    Time Temperature Precipitation Wind Pressure Humidity
    00:00 +2°C° 0.3 mm 8 mps 747 mmHg 89%
    01:00 +2°C° 0.3 mm 8 mps 746 mmHg 89%
    02:00 +3°C° 0.1 mm 7 mps 746 mmHg 89%
    03:00 +3°C° 0.1 mm 6 mps 745 mmHg 90%
    04:00 +3°C° 0.1 mm 6 mps 745 mmHg 90%
    05:00 +3°C° 0.1 mm 6 mps 745 mmHg 90%
    06:00 +3°C° 0.1 mm 6 mps 745 mmHg 90%
    07:00 +3°C° 0.1 mm 7 mps 745 mmHg 89%
    08:00 +3°C° 0.2 mm 6 mps 744 mmHg 90%
    09:00 +3°C° 0.2 mm 6 mps 744 mmHg 91%
    10:00 +3°C° 0.2 mm 5 mps 744 mmHg 91%
    11:00 +3°C° 0.7 mm 5 mps 743 mmHg 92%
    12:00 +3°C° 0.7 mm 5 mps 742 mmHg 93%
    13:00 +3°C° 0.7 mm 5 mps 742 mmHg 93%
    14:00 +4°C° 0.5 mm 4 mps 742 mmHg 94%
    15:00 +4°C° 0.5 mm 4 mps 742 mmHg 94%
    16:00 +4°C° 0.5 mm 3 mps 742 mmHg 94%
    17:00 +4°C° 0.3 mm 3 mps 742 mmHg 94%
    18:00 +4°C° 0.3 mm 3 mps 743 mmHg 94%
    19:00 +4°C° 0.3 mm 3 mps 743 mmHg 94%
    20:00 +5°C° 0.1 mm 2 mps 743 mmHg 94%
    21:00 +5°C° 0.1 mm 2 mps 744 mmHg 95%
    22:00 +5°C° 0.1 mm 2 mps 744 mmHg 95%
    23:00 +6°C° 0 mm 1 mps 744 mmHg 95%

    29 October, Monday

    Time Temperature Precipitation Wind Pressure Humidity
    00:00 +6°C° 0 mm 1 mps 744 mmHg 95%
    01:00 +5°C° 0 mm 1 mps 745 mmHg 96%
    02:00 +5°C° 0 mm 1 mps 745 mmHg 96%
    03:00 +5°C° 0 mm 1 mps 745 mmHg 96%
    04:00 +4°C° 0 mm 1 mps 746 mmHg 96%
    05:00 +4°C° 0 mm 1 mps 746 mmHg 96%
    06:00 +5°C° 0 mm 1 mps 746 mmHg 96%
    07:00 +5°C° 0 mm 1 mps 747 mmHg 96%
    08:00 +7°C° 0 mm 1 mps 747 mmHg 90%
    09:00 +9°C° 0 mm 1 mps 747 mmHg 85%
    10:00 +10°C° 0 mm 2 mps 748 mmHg 79%
    11:00 +12°C° 0 mm 2 mps 747 mmHg 73%
    12:00 +13°C° 0 mm 2 mps 747 mmHg 68%
    13:00 +15°C° 0 mm 2 mps 747 mmHg 62%
    14:00 +14°C° 0.1 mm 2 mps 747 mmHg 68%
    15:00 +13°C° 0.1 mm 2 mps 747 mmHg 74%
    16:00 +12°C° 0.1 mm 2 mps 747 mmHg 80%
    17:00 +11°C° 0.4 mm 1 mps 747 mmHg 84%
    18:00 +11°C° 0.4 mm 1 mps 747 mmHg 87%
    19:00 +10°C° 0.4 mm 1 mps 747 mmHg 91%
    20:00 +10°C° 0.3 mm 1 mps 747 mmHg 92%
    21:00 +10°C° 0.3 mm 1 mps 746 mmHg 93%
    22:00 +10°C° 0.3 mm 1 mps 746 mmHg 94%
    23:00 +9°C° 0.2 mm 2 mps 745 mmHg 94%

    30 October, Tuesday

    Time Temperature Precipitation Wind Pressure Humidity
    00:00 +9°C° 0.2 mm 2 mps 744 mmHg 94%
    01:00 +9°C° 0.2 mm 3 mps 744 mmHg 95%
    02:00 +9°C° 1.1 mm 3 mps 742 mmHg 95%
    03:00 +9°C° 1.1 mm 3 mps 741 mmHg 96%
    04:00 +9°C° 1.1 mm 3 mps 740 mmHg 96%
    05:00 +8°C° 1.8 mm 4 mps 739 mmHg 96%
    06:00 +8°C° 1.8 mm 4 mps 738 mmHg 95%
    07:00 +8°C° 1.8 mm 5 mps 737 mmHg 95%
    08:00 +10°C° 0.3 mm 4 mps 737 mmHg 94%
    09:00 +10°C° 0.3 mm 4 mps 737 mmHg 93%
    10:00 +10°C° 0.3 mm 3 mps 736 mmHg 92%
    11:00 +10°C° 0.1 mm 3 mps 736 mmHg 91%
    12:00 +10°C° 0.1 mm 3 mps 736 mmHg 90%
    13:00 +10°C° 0.1 mm 3 mps 736 mmHg 88%
    14:00 +10°C° 0.3 mm 3 mps 736 mmHg 88%
    15:00 +9°C° 0.3 mm 3 mps 736 mmHg 88%
    16:00 +8°C° 0.3 mm 4 mps 736 mmHg 87%
    17:00 +7°C° 0.8 mm 4 mps 737 mmHg 88%
    18:00 +7°C° 0.8 mm 5 mps 738 mmHg 88%
    19:00 +6°C° 0.8 mm 5 mps 739 mmHg 88%
    20:00 +6°C° 1 mm 5 mps 739 mmHg 88%
    21:00 +4°C° 1 mm 6 mps 740 mmHg 87%
    22:00 +4°C° 1 mm 6 mps 741 mmHg 87%
    23:00 +3°C° 0.1 mm 6 mps 741 mmHg 86%
    Show more